User: anonymous
Location: Key Biscayne
(25.6930°N, 80.1630°W)
Time: 13:26:39
(UTC-04:00)
Language:

CZ-2D R/B - Orbit

View from above orbital plane
View from above orbital plane
View from above satellite
View from above satellite

Ground track
Ground track

The orbit data is extracted from the following two-line orbital elements,

1 28738U 05024B   14202.11003811  .00000582  00000-0  43228-4 0  8035
2 28738 097.6296 237.1110 0014393 051.6338 308.6180 15.06801789495571
Epoch (UTC): 21 July 2014 02:38:27
Eccentricity: 0.0014393
inclination: 97.6296°
perigee height: 536 km
apogee height: 556 km
right ascension of ascending node: 237.1110°
argument of perigee: 51.6338°
revolutions per day: 15.06801789
mean anomaly at epoch: 308.6180°
orbit number at epoch: 49557

The dashed part of the orbit path shows where the satellite is in the earth's shadow,  

DLR